INTERCOSMOS 25 (21819 NORAD) Tracking and Keplerian Element Data

This shows tracking and keplerian element data for the satellite.

Feedback or suggestion? Click here.




ElementValue
Catalog21819
NameINTERCOSMOS 25
Epoch Orbit48703
Epoch Day353.98327854
Epoch Year2025
RAAN358.1942
Inclination82.6067
Eccentricity0.1486372
Argument of Perigee288.7801
Mean Anonmoly55.8054
Mean Motion12.1175395
Decay Rate1.861E-05
L11 21819U 91086A 25353.98327854 .00001861 00000+0 37063-3 0 9996
L22 21819 82.6067 358.1942 1486372 288.7801 55.8054 12.11753950487032



Live tracking and technical data element details for INTERCOSMOS 25 (NORAD 21819). INTERCOSMOS 25 can be tracked NOW for your location showing map with azimuth and elevation plus other details from your city location.







IsCatalogInMostPopularTable: catalog: 21819, numindb: 423
Update: records affected: 1



GetName: 21819 INTERCOSMOS 25

Hit Count: updated at: Thu, 16 Apr 2026 04:19:50 GMT